| time (UTC) | temp F | wind direction | speed MPH | gust MPH | rain 1hr in | rain 24hr in | rain mn in | humidity % | barometer mb |
| 20260508034511 | 37 | 270 | 1.0 | 5.0 | 0.00 | 0.00 | 0.00 | 79 | 1011.1 |
| 20260508033021 | 36 | 297 | 0.0 | 2.0 | 0.00 | 0.00 | 0.00 | 80 | 1011.1 |
| 20260508031529 | 37 | 297 | 0.0 | 1.0 | 0.00 | 0.00 | 0.00 | 76 | 1011.0 |
| 20260508030025 | 37 | 297 | 0.0 | 0.0 | 0.00 | 0.00 | 0.00 | 74 | 1010.9 |
| 20260508024540 | 38 | 297 | 0.0 | 0.0 | 0.00 | 0.00 | 0.00 | 70 | 1011.0 |
| 20260508023024 | 39 | 297 | 0.0 | 1.0 | 0.00 | 0.00 | 0.00 | 66 | 1011.0 |
| 20260508021519 | 40 | 297 | 0.0 | 1.0 | 0.00 | 0.00 | 0.00 | 67 | 1011.0 |
| 20260508020022 | 40 | 297 | 0.0 | 2.0 | 0.00 | 0.00 | 0.00 | 63 | 1011.1 |
| 20260508014542 | 41 | 297 | 0.0 | 2.0 | 0.00 | 0.00 | 0.00 | 63 | 1011.2 |
| 20260508013029 | 42 | 297 | 0.0 | 2.0 | 0.00 | 0.00 | 0.00 | 61 | 1011.2 |
| 20260508011520 | 43 | 297 | 0.0 | 2.0 | 0.00 | 0.00 | 0.00 | 56 | 1011.0 |
| 20260508010027 | 44 | 277 | 0.0 | 3.0 | 0.00 | 0.00 | 0.00 | 58 | 1011.0 |
| 20260508004527 | 44 | 319 | 1.0 | 6.0 | 0.00 | 0.00 | 0.00 | 53 | 1010.7 |
| 20260508003031 | 45 | 313 | 2.0 | 5.0 | 0.00 | 0.00 | 0.00 | 53 | 1010.7 |
| 20260508001512 | 45 | 326 | 2.0 | 5.0 | 0.00 | 0.00 | 0.00 | 50 | 1010.6 |
| 20260508000019 | 46 | 340 | 2.0 | 9.0 | 0.00 | 0.00 | 0.00 | 47 | 1010.4 |
| 20260507234504 | 46 | 13 | 3.0 | 8.0 | 0.00 | 0.00 | 0.00 | 46 | 1010.4 |
| 20260507233006 | 47 | 10 | 4.0 | 10.0 | 0.00 | 0.00 | 0.00 | 44 | 1010.2 |
| 20260507231512 | 47 | 342 | 3.0 | 11.0 | 0.00 | 0.00 | 0.00 | 43 | 1010.2 |
| 20260507230017 | 48 | 347 | 4.0 | 10.0 | 0.00 | 0.00 | 0.00 | 42 | 1010.2 |
| 20260507224520 | 48 | 236 | 3.0 | 10.0 | 0.00 | 0.00 | 0.00 | 43 | 1010.2 |
| 20260507223004 | 48 | 295 | 2.0 | 8.0 | 0.00 | 0.00 | 0.00 | 43 | 1010.3 |
| 20260507221510 | 48 | 351 | 3.0 | 12.0 | 0.00 | 0.00 | 0.00 | 42 | 1010.2 |
| 20260507220014 | 49 | 318 | 5.0 | 13.0 | 0.00 | 0.00 | 0.00 | 40 | 1010.2 |
| 20260507214519 | 49 | 350 | 4.0 | 9.0 | 0.00 | 0.00 | 0.00 | 39 | 1010.4 |
| 20260507213024 | 49 | 28 | 3.0 | 13.0 | 0.00 | 0.00 | 0.00 | 41 | 1010.4 |
| 20260507211505 | 50 | 267 | 6.0 | 13.0 | 0.00 | 0.00 | 0.00 | 41 | 1010.3 |
| 20260507210011 | 50 | 321 | 10.0 | 16.0 | 0.00 | 0.00 | 0.00 | 36 | 1010.3 |
| 20260507204515 | 50 | 317 | 8.0 | 15.0 | 0.00 | 0.00 | 0.00 | 39 | 1010.3 |
| 20260507203019 | 50 | 300 | 7.0 | 15.0 | 0.00 | 0.00 | 0.00 | 41 | 1010.3 |
| 20260507201527 | 50 | 323 | 5.0 | 19.0 | 0.00 | 0.00 | 0.00 | 44 | 1010.6 |
| 20260507200010 | 50 | 305 | 10.0 | 18.0 | 0.00 | 0.00 | 0.00 | 43 | 1010.7 |
| 20260507194512 | 50 | 350 | 7.0 | 16.0 | 0.00 | 0.00 | 0.00 | 45 | 1010.9 |
| 20260507193020 | 50 | 306 | 6.0 | 15.0 | 0.00 | 0.00 | 0.00 | 46 | 1011.0 |
| 20260507191523 | 50 | 9 | 6.0 | 14.0 | 0.00 | 0.00 | 0.00 | 48 | 1011.2 |
| 20260507190028 | 49 | 341 | 10.0 | 16.0 | 0.00 | 0.00 | 0.00 | 50 | 1011.5 |
| 20260507184513 | 49 | 355 | 9.0 | 15.0 | 0.00 | 0.00 | 0.00 | 50 | 1011.5 |
| 20260507183014 | 48 | 322 | 9.0 | 15.0 | 0.00 | 0.00 | 0.00 | 51 | 1011.7 |
| 20260507181520 | 50 | 308 | 8.0 | 15.0 | 0.00 | 0.00 | 0.00 | 53 | 1011.6 |
| 20260507180023 | 48 | 293 | 8.0 | 17.0 | 0.00 | 0.00 | 0.00 | 52 | 1011.7 |
| 20260507174526 | 48 | 326 | 4.0 | 13.0 | 0.00 | 0.00 | 0.00 | 53 | 1011.6 |
| 20260507173013 | 48 | 349 | 7.0 | 18.0 | 0.00 | 0.00 | 0.00 | 53 | 1011.7 |
| 20260507171516 | 48 | 251 | 5.0 | 13.0 | 0.00 | 0.00 | 0.00 | 54 | 1011.7 |
| 20260507170025 | 48 | 328 | 5.0 | 15.0 | 0.00 | 0.00 | 0.00 | 57 | 1011.8 |
| 20260507164525 | 47 | 338 | 8.0 | 15.0 | 0.00 | 0.00 | 0.00 | 57 | 1011.9 |
| 20260507163027 | 47 | 319 | 7.0 | 16.0 | 0.00 | 0.00 | 0.00 | 56 | 1012.1 |
| 20260507161516 | 47 | 262 | 7.0 | 17.0 | 0.00 | 0.00 | 0.00 | 56 | 1012.3 |
| 20260507160021 | 46 | 348 | 6.0 | 11.0 | 0.00 | 0.00 | 0.00 | 59 | 1012.4 |
| 20260507154526 | 45 | 19 | 4.0 | 10.0 | 0.00 | 0.00 | 0.00 | 62 | 1012.4 |
| 20260507153003 | 45 | 316 | 8.0 | 12.0 | 0.00 | 0.00 | 0.00 | 58 | 1012.7 |
| 20260507151505 | 43 | 315 | 7.0 | 12.0 | 0.00 | 0.00 | 0.00 | 59 | 1012.8 |
| 20260507150010 | 43 | 307 | 5.0 | 13.0 | 0.00 | 0.00 | 0.00 | 61 | 1013.1 |
| 20260507144505 | 42 | 286 | 3.0 | 8.0 | 0.00 | 0.00 | 0.00 | 61 | 1013.2 |
| 20260507143004 | 41 | 319 | 3.0 | 7.0 | 0.00 | 0.00 | 0.00 | 60 | 1013.3 |
| 20260507141503 | 41 | 316 | 2.0 | 8.0 | 0.00 | 0.00 | 0.00 | 62 | 1013.3 |
| 20260507140004 | 40 | 296 | 2.0 | 10.0 | 0.00 | 0.01 | 0.00 | 64 | 1013.3 |
| 20260507134503 | 41 | 323 | 5.0 | 14.0 | 0.00 | 0.02 | 0.00 | 61 | 1013.5 |
| 20260507133003 | 41 | 302 | 7.0 | 12.0 | 0.00 | 0.03 | 0.00 | 62 | 1013.3 |
| 20260507131504 | 41 | 319 | 4.0 | 11.0 | 0.00 | 0.04 | 0.00 | 66 | 1013.2 |
| 20260507130005 | 40 | 277 | 4.0 | 8.0 | 0.00 | 0.04 | 0.00 | 65 | 1013.1 |
| 20260507124513 | 41 | 344 | 2.0 | 8.0 | 0.00 | 0.06 | 0.00 | 68 | 1013.1 |
| 20260507123005 | 39 | 340 | 6.0 | 10.0 | 0.00 | 0.08 | 0.00 | 68 | 1013.1 |
| 20260507121505 | 39 | 307 | 3.0 | 10.0 | 0.00 | 0.09 | 0.00 | 69 | 1013.1 |
| 20260507120005 | 38 | 318 | 2.0 | 10.0 | 0.00 | 0.10 | 0.00 | 73 | 1013.1 |
| 20260507114509 | 38 | 333 | 4.0 | 9.0 | 0.00 | 0.11 | 0.00 | 73 | 1013.0 |
| 20260507113008 | 37 | 292 | 1.0 | 5.0 | 0.00 | 0.13 | 0.00 | 78 | 1012.8 |
| 20260507111504 | 37 | 339 | 3.0 | 9.0 | 0.00 | 0.15 | 0.00 | 76 | 1012.8 |
| 20260507110012 | 35 | 298 | 3.0 | 7.0 | 0.00 | 0.18 | 0.00 | 81 | 1012.7 |
| 20260507104508 | 33 | 306 | 1.0 | 4.0 | 0.00 | 0.19 | 0.00 | 86 | 1012.6 |
| 20260507103010 | 32 | 273 | 0.0 | 3.0 | 0.00 | 0.21 | 0.00 | 90 | 1012.6 |
| 20260507101510 | 31 | 309 | 0.0 | 3.0 | 0.00 | 0.22 | 0.00 | 90 | 1012.3 |
| 20260507100010 | 31 | 269 | 0.0 | 1.0 | 0.00 | 0.23 | 0.00 | 89 | 1012.6 |
| 20260507094508 | 31 | 269 | 0.0 | 3.0 | 0.00 | 0.23 | 0.00 | 88 | 1012.4 |
| 20260507093008 | 31 | 249 | 1.0 | 3.0 | 0.00 | 0.24 | 0.00 | 88 | 1012.5 |
| 20260507091532 | 32 | 252 | 0.0 | 3.0 | 0.00 | 0.26 | 0.00 | 86 | 1012.5 |
| 20260507090011 | 33 | 314 | 0.0 | 2.0 | 0.00 | 0.27 | 0.00 | 86 | 1012.5 |
| 20260507084504 | 33 | 246 | 0.0 | 2.0 | 0.00 | 0.28 | 0.00 | 86 | 1012.6 |
| 20260507083016 | 33 | 313 | 0.0 | 3.0 | 0.00 | 0.29 | 0.00 | 85 | 1012.5 |
| 20260507081513 | 33 | 284 | 0.0 | 2.0 | 0.00 | 0.30 | 0.00 | 84 | 1012.6 |
| 20260507080013 | 34 | 284 | 0.0 | 3.0 | 0.00 | 0.31 | 0.00 | 82 | 1012.7 |
| 20260507074513 | 35 | 284 | 0.0 | 4.0 | 0.00 | 0.32 | 0.00 | 81 | 1012.4 |
| 20260507073007 | 36 | 308 | 0.0 | 4.0 | 0.00 | 0.33 | 0.00 | 80 | 1012.3 |
| 20260507071512 | 36 | 306 | 1.0 | 3.0 | 0.00 | 0.36 | 0.00 | 78 | 1012.2 |
| 20260507070016 | 37 | 287 | 1.0 | 9.0 | 0.00 | 0.37 | 0.00 | 75 | 1012.0 |
| 20260507064515 | 37 | 315 | 3.0 | 8.0 | 0.00 | 0.37 | 0.00 | 74 | 1012.0 |
| 20260507063006 | 37 | 308 | 3.0 | 9.0 | 0.00 | 0.38 | 0.00 | 74 | 1012.2 |
| 20260507061525 | 37 | 333 | 3.0 | 9.0 | 0.00 | 0.39 | 0.00 | 74 | 1012.2 |
| 20260507060026 | 38 | 323 | 3.0 | 11.0 | 0.00 | 0.40 | 0.00 | 72 | 1012.4 |
| 20260507054515 | 39 | 323 | 7.0 | 12.0 | 0.00 | 0.41 | 0.00 | 75 | 1012.3 |
| 20260507053004 | 39 | 305 | 7.0 | 12.0 | 0.00 | 0.41 | 0.00 | 82 | 1012.4 |
| 20260507051507 | 39 | 331 | 2.0 | 9.0 | 0.00 | 0.41 | 0.00 | 88 | 1012.3 |
| 20260507050027 | 39 | 300 | 4.0 | 10.0 | 0.00 | 0.41 | 0.00 | 90 | 1012.2 |
| 20260507044531 | 39 | 317 | 4.0 | 8.0 | 0.00 | 0.42 | 0.00 | 92 | 1012.3 |
| 20260507043016 | 39 | 264 | 5.0 | 10.0 | 0.00 | 0.44 | 0.00 | 93 | 1012.3 |
| 20260507041503 | 40 | 310 | 3.0 | 10.0 | 0.00 | 0.45 | 0.00 | 93 | 1012.1 |
| 20260507040010 | 40 | 338 | 2.0 | 4.0 | 0.00 | 0.47 | 0.00 | 93 | 1012.0 |